Probability
45 45 100 100 94 90 81 74 68 52 29 16 6 0 0 0 0 3 0 0 0 0 0 0 0 0 0 0 0 0 0 0 0 0 0 0 0 0 0 0 0 0 0
42 48 100 100 97 94 90 87 71 55 39 19 10 0 0 0 0 0 0 0 0 0 0 0 0 0 0 0 0 0 0 0 0 0 0 0 0 0 0 0 0 0 0
39 48 90 100 100 97 90 87 71 48 32 26 10 0 0 0 0 0 0 0 0 0 0 0 0 0 0 0 0 0 0 0 0 0 0 0 0 0 0 0 0 0 0
42 61 65 100 100 100 87 84 65 42 32 23 6 3 0 0 0 0 0 0 0 0 0 0 0 0 0 0 0 0 0 0 0 0 0 0 0 0 0 0 0 0 0
55 65 87 100 100 100 97 84 61 39 29 13 6 3 6 6 3 0 0 0 0 0 0 0 0 0 0 0 0 0 0 0 0 0 0 0 0 0 0 0 0 0 0
58 74 87 100 100 100 97 87 61 42 23 16 10 3 6 6 3 0 0 0 0 0 0 0 0 0 0 0 0 0 0 0 0 0 0 0 0 0 0 0 0 0 0
71 81 87 100 100 100 97 90 61 39 16 13 10 3 6 10 3 0 0 0 0 0 0 0 0 0 0 0 0 0 0 0 0 0 0 0 0 0 0 0 0 0 0
74 81 87 100 100 100 90 84 55 32 16 10 13 16 16 13 3 0 0 0 0 0 0 0 0 0 0 0 0 0 0 0 0 0 0 0 0 0 0 0 0 0 0
81 84 87 94 97 94 87 77 58 26 19 16 19 19 16 13 3 0 0 0 0 0 0 0 0 0 0 0 0 0 0 0 0 0 0 0 0 0 0 0 0 0 0
84 90 90 94 87 84 81 39 23 13 6 10 3 3 0 0 0 0 0 0 0 0 0 0 0 0 0 0 0 0 0 0 0 0 0 0 0 0 0 0 0 0 0
94 94 100 90 87 84 65 29 10 6 3 0 0 0 0 0 0 0 0 0 0 0 0 0 0 0 0 0 0 0 0 0 0 0 0 0 0 0 0 0 0 0 0
94 97 94 90 87 81 42 35 32 10 6 0 3 0 3 3 0 0 0 0 0 0 0 0 0 0 0 0 0 0 0 0 0 0 0 0 0 0 0 0 0 0 0
87 87 87 90 77 77 55 35 23 10 6 10 0 0 0 0 0 0 0 0 0 0 0 0 0 0 0 0 0 0 0 0 0 0 0 0 0 0 0 0 0 0 0
87 87 87 87 74 65 55 32 23 10 6 10 3 0 0 0 0 0 0 0 0 0 0 0 0 0 0 0 0 0 0 0 0 0 0 0 0 0 0 0 0 0 0
90 87 87 87 74 65 48 32 13 13 3 0 0 0 0 0 0 0 0 0 0 0 0 0 0 0 0 0 0 0 0 0 0 0 0 0 0 0 0 0 0 0 0
84 90 84 90 77 58 45 26 13 10 10 3 3 0 0 0 0 0 0 0 0 0 0 0 0 0 0 0 0 0 0 0 0 0 0 0 0 0 0 0 0 0 0
74 77 81 84 65 61 45 23 16 16 10 10 0 0 0 0 0 0 0 0 0 0 0 0 0 0 0 0 0 0 0 0 0 0 0 0 0 0 0 0 0 0 0
61 68 71 65 65 61 48 35 19 16 16 10 3 0 0 0 0 0 0 0 0 0 0 0 0 0 0 0 0 0 0 0 0 0 0 0 0 0 0 0 0 0 0
48 58 65 71 74 61 58 42 32 19 16 13 6 3 0 0 0 0 0 0 0 0 0 0 0 0 0 0 0 0 0 0 0 0 0 0 0 0 0 0 0 0 0
61 55 61 68 65 55 55 45 35 23 23 16 10 6 0 0 0 0 0 0 0 0 0 0 0 0 0 0 0 0 0 0 0 0 0 0 0 0 0 0 0 0 0
45 48 58 68 68 55 52 45 42 29 16 16 10 3 0 0 0 0 0 0 0 0 0 0 0 0 0 0 0 0 0 0 0 0 0 0 0 0 0 0 0 0 0
35 42 48 58 65 61 55 48 42 29 26 16 13 3 0 0 0 0 0 3 0 0 0 0 0 0 0 0 0 0 0 0 0 0 0 0 0 0 0 0 0 0 0
26 35 35 35 48 55 52 35 16 16 16 10 10 10 3 0 0 0 0 0 0 0 0 0 0 0 0 0 0 0 0 0 0 0 0 0 0 0 0 0 0 0 0
6 19 26 26 29 29 29 23 23 26 16 16 26 19 3 0 0 0 0 0 0 0 0 0 0 0 0 0 0 0 0 0 0 0 0 0 0 0 0 0 0 0 0
3 6 16 19 19 26 23 26 26 19 26 26 13 13 10 0 0 0 0 0 0 0 0 0 0 0 0 0 0 0 0 0 0 0 0 0 0 0 0 0 0 0 0
0 3 10 10 13 16 19 23 23 32 29 23 10 3 3 3 0 0 0 0 0 0 0 0 0 0 0 0 0 0 0 0 0 0 0 0 0 0 0 0 0 0 0
Height
5892 5893 5895 5896 5897 5898 5899 5900 5901 5901 5902 5902 5903 5903 5903 5903 5903 5903 5903 5902 5902 5901 5901 5900 5899 5899 5898 5897 5896 5895 5894 5893 5891 5890 5888 5887 5885 5884 5882 5880 5879 5877 5875
5890 5892 5893 5895 5896 5897 5898 5899 5900 5900 5901 5902 5902 5902 5902 5902 5902 5902 5902 5902 5901 5901 5900 5899 5899 5898 5897 5896 5895 5894 5893 5892 5891 5889 5888 5886 5885 5883 5881 5880 5878 5876 5874
5888 5889 5891 5893 5894 5895 5897 5898 5899 5899 5900 5901 5901 5901 5901 5902 5902 5901 5901 5901 5901 5900 5899 5899 5898 5897 5897 5896 5895 5893 5892 5891 5890 5888 5887 5885 5884 5882 5880 5879 5877 5875 5873
5885 5887 5889 5891 5892 5894 5895 5896 5897 5898 5899 5899 5900 5900 5900 5901 5901 5900 5900 5900 5900 5899 5898 5898 5897 5896 5896 5895 5894 5893 5891 5890 5889 5887 5886 5884 5882 5881 5879 5878 5876 5874 5872
5883 5885 5887 5889 5890 5892 5893 5895 5896 5897 5897 5898 5899 5899 5899 5899 5899 5899 5899 5899 5899 5898 5898 5897 5896 5895 5895 5894 5893 5892 5890 5889 5888 5886 5884 5883 5881 5880 5878 5876 5874 5872 5871
5880 5882 5884 5886 5888 5890 5891 5893 5894 5895 5896 5896 5897 5898 5898 5898 5898 5898 5898 5898 5897 5897 5896 5896 5895 5894 5894 5893 5892 5890 5889 5888 5886 5885 5883 5881 5880 5878 5877 5875 5873 5871 5869
5877 5880 5882 5884 5886 5888 5889 5891 5892 5893 5894 5895 5896 5896 5897 5897 5897 5897 5897 5896 5896 5896 5895 5895 5894 5893 5892 5891 5890 5889 5888 5886 5885 5883 5881 5880 5878 5876 5875 5873 5871 5869 5867
5874 5877 5879 5881 5883 5885 5887 5889 5890 5891 5892 5893 5894 5894 5895 5895 5895 5896 5895 5895 5895 5894 5894 5893 5892 5892 5891 5890 5888 5887 5886 5884 5883 5881 5879 5878 5876 5874 5872 5870 5868 5866 5864
5870 5873 5876 5878 5881 5883 5884 5886 5888 5889 5890 5891 5892 5893 5893 5894 5894 5894 5894 5893 5893 5893 5892 5891 5891 5890 5889 5888 5887 5885 5884 5882 5881 5879 5877 5875 5873 5872 5870 5868 5865 5863 5861
5866 5870 5873 5875 5878 5880 5882 5884 5885 5887 5888 5889 5890 5890 5891 5891 5892 5892 5892 5892 5891 5891 5890 5889 5889 5888 5887 5886 5884 5883 5882 5880 5878 5876 5874 5872 5870 5869 5866 5864 5862 5860 5858
5862 5866 5869 5872 5874 5877 5879 5880 5882 5884 5885 5886 5887 5888 5888 5889 5889 5889 5890 5889 5889 5889 5888 5887 5887 5886 5884 5883 5882 5880 5879 5877 5875 5873 5871 5869 5867 5865 5863 5861 5859 5856 5854
5858 5862 5865 5868 5870 5873 5875 5877 5879 5881 5882 5883 5884 5885 5886 5886 5887 5887 5887 5887 5886 5886 5885 5885 5884 5883 5882 5880 5879 5877 5876 5874 5872 5870 5868 5866 5864 5862 5859 5857 5855 5852 5850
5853 5857 5860 5863 5866 5869 5871 5873 5875 5877 5879 5880 5881 5882 5883 5883 5884 5884 5884 5884 5884 5883 5883 5882 5881 5880 5879 5877 5876 5874 5872 5871 5869 5867 5865 5862 5860 5858 5855 5853 5850 5848 5846
5848 5852 5856 5859 5862 5864 5867 5869 5871 5873 5875 5876 5878 5879 5879 5880 5881 5881 5881 5881 5880 5880 5880 5879 5878 5877 5875 5874 5873 5871 5869 5867 5865 5863 5861 5858 5856 5853 5851 5848 5846 5843 5841
5842 5846 5850 5854 5857 5860 5863 5865 5867 5869 5871 5872 5874 5875 5876 5876 5877 5877 5877 5877 5877 5877 5876 5875 5874 5873 5872 5870 5869 5867 5865 5863 5861 5858 5856 5854 5851 5849 5846 5844 5841 5838 5836
5837 5841 5845 5849 5852 5855 5858 5860 5862 5864 5866 5868 5869 5870 5871 5872 5872 5873 5873 5873 5873 5872 5872 5871 5870 5869 5868 5866 5864 5863 5861 5858 5856 5854 5851 5849 5846 5843 5841 5838 5836 5833 5830
5830 5834 5838 5842 5846 5849 5852 5854 5856 5859 5861 5862 5864 5865 5866 5867 5868 5868 5868 5868 5868 5868 5867 5867 5866 5864 5863 5862 5860 5858 5856 5853 5851 5848 5846 5843 5840 5838 5835 5833 5830 5827 5824
5823 5828 5832 5836 5839 5843 5846 5848 5850 5853 5855 5857 5858 5860 5861 5862 5862 5863 5863 5863 5863 5863 5862 5861 5860 5859 5858 5856 5855 5853 5851 5848 5846 5843 5840 5837 5834 5832 5829 5826 5823 5821 5818
5816 5821 5825 5829 5833 5836 5839 5841 5844 5846 5849 5851 5852 5854 5855 5856 5856 5857 5857 5857 5857 5857 5856 5856 5855 5854 5852 5851 5849 5847 5845 5843 5840 5837 5834 5831 5828 5825 5822 5819 5817 5814 5811
5809 5813 5818 5822 5825 5828 5831 5834 5837 5840 5842 5844 5846 5847 5848 5849 5850 5851 5851 5851 5851 5851 5850 5850 5849 5847 5846 5844 5843 5841 5839 5836 5833 5830 5827 5824 5821 5818 5815 5812 5809 5806 5803
5801 5806 5810 5814 5818 5821 5824 5827 5829 5832 5834 5836 5838 5840 5841 5842 5843 5844 5844 5844 5844 5844 5843 5843 5842 5841 5839 5837 5836 5834 5832 5829 5826 5823 5820 5817 5814 5811 5807 5804 5801 5799 5795
5793 5798 5802 5806 5810 5813 5816 5819 5821 5824 5826 5828 5830 5832 5833 5835 5836 5836 5837 5837 5837 5837 5836 5835 5834 5833 5832 5830 5828 5826 5825 5824 5820 5816 5812 5809 5806 5802 5799 5796 5793 5790 5787
5785 5790 5794 5797 5801 5805 5808 5810 5813 5815 5818 5820 5822 5824 5825 5827 5828 5828 5829 5829 5829 5829 5828 5828 5827 5826 5824 5823 5820 5818 5817 5815 5813 5810 5806 5802 5798 5794 5791 5788 5785 5782 5779
5776 5780 5785 5789 5792 5796 5799 5802 5804 5807 5809 5811 5813 5815 5816 5817 5819 5820 5820 5821 5821 5820 5820 5819 5818 5817 5816 5815 5813 5810 5808 5805 5803 5802 5799 5795 5790 5787 5783 5780 5776 5773 5770
5766 5771 5775 5779 5783 5787 5790 5793 5795 5798 5800 5802 5803 5805 5807 5808 5809 5810 5811 5811 5812 5811 5811 5811 5810 5808 5807 5806 5804 5802 5799 5797 5794 5791 5790 5787 5783 5779 5775 5771 5768 5764 5761
5756 5761 5765 5769 5773 5777 5780 5783 5786 5788 5790 5792 5794 5795 5797 5799 5800 5801 5801 5802 5802 5802 5802 5801 5800 5799 5798 5796 5795 5793 5790 5788 5785 5782 5780 5777 5774 5770 5766 5762 5759 5755 5752
Wind_Speed
17 16 15 14 13 12 11 10 9 8 8 7 6 5 4 3 2 2 2 3 3 3 4 4 5 6 7 7 8 8 9 10 11 12 13 13 14 15 15 16 16 17 17
18 17 15 14 13 12 11 10 9 8 8 7 6 5 4 3 2 2 2 3 3 3 4 5 5 6 7 7 8 9 10 11 11 12 13 14 15 15 16 16 17 17 17
19 17 16 15 14 12 11 10 10 9 8 7 6 5 4 3 3 3 3 3 3 4 5 5 6 6 7 8 9 10 11 11 12 13 14 15 15 16 17 17 17 17 17
20 18 16 15 14 13 12 11 10 9 8 7 7 6 4 3 3 3 3 3 4 4 5 6 6 7 7 8 9 10 11 12 13 14 15 15 16 17 18 18 18 18 18
22 20 18 16 15 14 12 11 10 9 9 8 7 6 4 3 3 3 3 4 4 5 5 6 6 7 8 9 10 11 12 13 14 15 16 17 17 18 19 19 19 19 19
23 21 19 18 16 14 13 12 11 10 9 8 7 6 5 4 4 4 4 4 5 5 6 6 7 7 8 9 11 12 13 14 15 16 16 17 18 19 19 20 20 20 21
25 22 21 19 17 16 14 13 12 11 10 9 8 7 6 5 4 4 4 5 5 6 6 7 7 8 9 10 11 12 14 15 16 17 18 18 19 20 21 21 21 21 22
26 24 22 20 19 17 16 14 13 12 11 10 9 8 7 6 6 5 5 6 6 6 7 7 8 9 10 11 12 13 15 16 17 18 18 19 20 21 22 22 23 23 23
28 26 23 22 20 19 17 16 15 14 13 11 10 9 8 7 7 7 7 7 7 7 8 8 9 10 11 12 13 14 16 17 18 19 19 20 21 22 23 23 24 24 24
30 27 25 23 22 20 19 17 16 15 14 13 11 10 9 8 8 8 8 8 8 8 9 9 11 12 13 14 15 16 17 18 19 20 21 22 23 24 24 25 25 26 26
31 29 26 25 24 22 21 19 18 16 15 14 13 12 11 10 10 10 10 10 10 10 11 11 12 13 14 15 16 17 19 20 21 22 23 24 24 25 26 26 27 27 27
33 31 29 27 25 24 22 21 20 18 17 16 15 13 12 12 12 11 11 11 11 12 12 13 14 14 15 16 18 19 20 21 23 24 25 25 26 27 27 28 28 29 29
36 34 32 29 28 26 24 23 22 20 19 18 17 15 15 14 14 13 13 13 13 14 14 15 15 16 17 18 19 20 22 23 24 25 26 27 28 29 29 30 30 30 31
39 36 34 32 30 28 27 25 24 22 21 20 19 18 17 16 16 16 16 16 16 16 16 17 17 18 19 20 21 22 23 25 26 27 28 29 30 30 31 31 31 32 32
41 39 36 34 32 31 29 28 26 25 24 23 21 20 19 18 18 18 18 18 18 18 18 19 19 20 21 22 23 24 25 26 27 29 30 31 31 32 32 32 33 33 32
42 41 39 37 35 33 32 30 29 28 26 25 24 23 22 21 21 21 20 20 20 20 21 21 22 22 23 24 25 26 27 28 29 30 31 32 33 33 33 33 33 34 33
44 43 41 39 37 36 35 34 32 31 29 28 27 26 25 24 24 23 23 23 23 23 23 24 24 25 25 26 27 28 29 30 31 32 33 34 34 34 34 35 34 34 34
45 44 43 41 40 39 38 37 36 34 33 31 30 29 28 27 27 26 26 26 26 26 26 26 27 27 28 28 29 29 30 32 32 33 35 35 35 36 36 36 36 36 36
46 45 43 43 42 41 40 40 39 38 36 35 33 32 32 31 30 30 29 29 29 29 29 29 29 30 30 31 31 31 32 33 34 35 36 36 37 37 37 37 37 37 37
48 47 45 44 44 44 43 42 42 41 39 38 37 36 35 34 34 33 33 33 32 32 32 32 32 32 33 33 33 34 34 35 35 36 37 37 38 38 38 38 38 38 39
49 48 48 47 46 46 45 45 44 44 42 41 40 39 39 37 37 36 36 35 35 34 34 34 34 35 35 35 36 36 36 36 37 38 38 38 39 39 39 39 39 40 39
50 49 49 48 47 47 47 47 47 46 45 44 43 43 42 40 40 39 38 38 38 37 37 37 37 37 37 37 38 38 37 37 38 39 40 40 41 41 40 40 40 40 40
52 51 50 49 48 48 49 48 48 48 47 47 46 45 44 43 43 42 41 41 40 40 39 39 39 39 39 39 40 40 40 39 39 38 39 40 41 41 41 41 41 41 41
52 53 52 51 50 50 51 51 50 49 49 49 48 47 47 46 45 45 44 43 43 42 42 41 41 41 41 41 41 41 42 42 42 41 39 39 40 41 41 42 41 41 41
53 52 52 52 52 51 51 52 51 51 51 51 50 49 49 48 47 47 47 46 45 44 43 42 42 43 42 42 42 42 42 43 43 43 41 41 41 41 41 41 41 40 40
53 53 53 53 53 52 52 52 52 52 52 52 52 52 51 50 49 49 48 47 46 46 45 44 44 44 44 43 43 44 44 43 43 43 43 42 41 41 41 41 40 40 40
Wind_Direction
223 223 223 222 223 223 223 224 224 224 224 224 225 227 228 230 250 286 320 326 331 331 332 335 338 341 343 345 345 343 342 342 342 343 343 342 341 341 340 339 338 337 336
224 224 223 222 222 223 222 223 224 223 222 223 224 224 226 234 256 292 312 323 329 329 331 334 337 339 341 343 343 343 342 342 343 343 343 342 341 340 339 337 335 334 333
224 225 224 223 223 222 221 223 225 223 222 221 221 223 229 242 264 287 306 319 323 328 334 336 336 337 339 341 343 344 344 344 344 343 341 340 339 338 337 335 333 330 329
224 225 225 224 224 224 223 224 225 225 224 223 222 225 232 245 263 285 303 316 322 326 331 333 334 335 338 341 343 345 344 343 342 341 340 338 337 335 334 332 330 328 327
226 226 227 227 226 225 225 226 228 227 226 224 222 224 229 243 262 280 298 312 320 324 329 331 333 335 338 339 341 342 342 340 340 339 338 336 335 333 331 330 329 326 324
227 228 228 228 226 226 226 227 227 227 225 224 223 225 232 245 260 275 292 307 316 320 324 329 331 334 335 337 338 340 341 339 338 337 336 334 332 331 329 328 326 324 322
228 228 228 227 226 225 225 225 224 224 224 224 225 229 235 244 258 273 290 304 311 316 320 325 328 331 333 334 336 337 337 337 336 334 333 332 330 329 327 325 323 322 320
229 228 228 227 226 225 225 224 223 224 225 225 228 231 237 246 257 273 289 300 306 312 317 322 325 327 329 331 333 334 334 333 332 330 329 328 328 327 325 323 321 320 318
230 229 228 227 226 225 225 225 224 225 226 228 231 235 242 252 262 275 288 296 302 309 315 321 324 325 326 328 330 331 331 330 329 328 327 325 324 323 322 321 320 318 316
231 230 229 228 227 227 227 226 226 227 229 231 234 239 246 255 265 276 284 292 299 306 311 317 321 323 324 325 326 327 326 325 325 325 324 323 322 321 319 318 317 316 315
232 232 232 230 228 228 228 228 228 230 231 234 238 242 248 257 266 275 282 290 297 302 307 311 315 318 320 322 322 322 322 321 321 321 320 320 319 318 317 316 316 315 313
232 233 233 231 230 230 229 230 231 232 234 237 240 244 250 257 265 272 279 286 292 297 301 305 308 311 314 316 317 318 318 318 317 317 316 316 315 315 315 314 314 313 312
230 231 232 232 232 231 231 232 233 234 236 239 242 247 252 258 264 271 276 282 287 292 296 300 303 305 309 311 312 313 314 314 314 314 313 313 313 313 313 312 312 312 311
229 231 231 232 232 232 232 233 235 237 239 242 245 249 253 259 264 269 274 279 283 288 292 296 299 301 304 306 308 309 310 310 311 311 311 311 311 311 311 311 311 311 310
229 230 231 232 233 233 233 235 237 239 242 245 247 250 254 258 262 268 272 276 280 284 288 291 294 297 300 302 304 305 306 307 307 308 308 308 308 309 309 309 309 309 309
229 231 232 233 234 234 235 236 238 240 243 246 249 251 254 258 262 267 271 274 278 281 285 288 290 293 296 298 300 302 303 304 305 305 306 306 307 307 308 307 307 307 307
229 231 232 233 233 234 235 237 238 241 244 247 250 253 256 259 262 266 269 273 276 279 282 285 288 290 293 295 297 299 300 301 302 303 304 304 305 306 306 306 306 306 306
229 230 232 233 234 235 236 237 239 242 245 249 252 254 257 260 263 266 269 272 275 278 281 284 286 288 290 292 294 297 298 299 300 301 302 303 304 304 304 304 304 304 305
229 230 232 233 234 235 236 238 240 242 245 248 252 255 257 260 263 266 269 272 275 277 280 282 284 286 288 290 293 295 296 297 298 299 300 302 302 303 303 303 303 304 304
230 232 232 234 234 235 237 239 241 243 245 248 251 254 257 260 263 266 269 271 274 276 279 281 283 285 287 289 291 294 295 296 297 298 299 300 301 301 301 302 302 303 303
231 233 235 235 236 238 239 240 242 243 246 248 250 254 256 260 263 266 268 271 273 276 278 280 282 284 286 288 291 293 294 295 297 297 298 299 300 300 300 300 301 301 301
232 234 235 237 238 240 240 241 242 243 246 249 251 254 256 259 263 265 268 270 272 275 277 279 281 283 285 287 290 291 292 293 295 297 298 299 299 299 299 300 300 300 300
233 235 237 238 239 241 241 243 243 245 247 249 251 253 256 258 261 264 267 269 272 274 276 278 280 282 284 286 288 290 290 291 292 294 295 296 296 296 297 298 298 298 298
234 235 237 239 241 242 242 244 244 246 247 249 251 253 255 258 261 263 266 268 271 273 275 277 279 281 283 285 286 288 290 291 292 292 293 293 293 294 294 295 296 296 296
234 236 238 240 242 243 244 245 246 248 248 250 251 253 255 258 261 264 266 267 269 271 273 276 278 280 281 283 286 287 289 290 291 292 293 293 293 293 293 294 295 295 295
234 236 239 241 242 244 245 246 247 248 249 251 252 253 255 258 261 263 264 266 267 269 271 274 276 278 281 283 285 287 288 289 290 291 292 293 292 293 293 294 294 294 295